KD9AQS Weather Reports


time (UTC)temp
F
wind
direction
speed
knots
gust
knots
rain 1hr
in
rain 24hr
in
rain mn
in
humidity
%
barometer
mb
20260505194510 76 227 1.7 7.0 0.00 0.00 0.00 44 1011.0
20260505193005 76 189 2.6 10.4 0.00 0.00 0.00 42 1011.1
20260505191503 76 162 1.7 7.0 0.00 0.00 0.00 45 1011.3
20260505184558 75 237 1.7 12.2 0.00 0.00 0.00 43 1012.1
20260505183055 75 220 2.6 7.0 0.00 0.00 0.00 43 1012.4
20260505181557 74 288 3.5 9.6 0.00 0.00 0.00 45 1012.6
20260505180052 74 251 5.2 10.4 0.00 0.00 0.00 45 1012.7
20260505174556 74 268 5.2 11.3 0.00 0.00 0.00 46 1012.9
20260505173051 75 279 5.2 10.4 0.00 0.00 0.00 47 1013.1
20260505171551 74 195 3.5 8.7 0.00 0.00 0.00 47 1013.4
20260505170044 73 155 3.5 10.4 0.00 0.00 0.00 50 1013.7
20260505164556 73 224 5.2 14.8 0.00 0.00 0.00 48 1013.8
20260505163051 73 257 5.2 13.9 0.00 0.00 0.00 48 1014.0
20260505161540 73 268 6.1 14.8 0.00 0.00 0.00 46 1014.0
20260505153035 72 180 3.5 7.8 0.00 0.00 0.00 51 1013.9
20260505151531 70 172 3.5 9.6 0.00 0.00 0.00 54 1014.1
20260505124506 60 175 0.0 1.7 0.00 0.00 0.00 70 1013.9
20260505123005 59 175 0.0 2.6 0.00 0.00 0.00 70 1013.8
20260505121503 57 175 0.0 0.9 0.00 0.00 0.00 71 1013.7
20260505120000 55 175 0.0 0.9 0.00 0.00 0.00 73 1013.4
20260505114602 54 171 0.0 0.9 0.00 0.00 0.00 78 1013.3
20260505113105 53 171 0.0 0.0 0.00 0.00 0.00 80 1013.0
20260505111556 51 171 0.0 0.0 0.00 0.00 0.00 82 1012.8
20260505110116 51 169 0.0 0.0 0.00 0.00 0.00 82 1012.7
20260505101547 54 169 0.0 0.0 0.00 0.00 0.00 74 1012.7
20260505100045 54 169 0.0 0.0 0.00 0.00 0.00 72 1012.8
20260505094541 55 169 0.0 0.0 0.00 0.00 0.00 70 1012.7
20260505093039 56 169 0.0 0.9 0.00 0.00 0.00 68 1012.7
20260505091537 57 169 0.0 1.7 0.00 0.00 0.00 68 1012.7
20260505090038 57 169 0.0 0.9 0.00 0.00 0.00 66 1012.6
20260505084532 58 169 0.0 1.7 0.00 0.00 0.00 64 1012.6
20260505083029 59 169 0.0 1.7 0.00 0.00 0.00 63 1012.6
20260505081540 60 169 1.7 4.3 0.00 0.00 0.00 63 1012.4
20260505080033 60 163 0.0 5.2 0.00 0.00 0.00 63 1012.4
20260505074525 61 148 1.7 7.0 0.00 0.00 0.00 61 1012.3
20260505073024 61 177 1.7 8.7 0.00 0.00 0.00 62 1012.6
20260505071539 60 184 2.6 6.1 0.00 0.00 0.00 63 1012.7
20260505070018 61 177 1.7 4.3 0.00 0.00 0.00 63 1012.7
20260505064523 61 188 0.9 6.1 0.00 0.00 0.00 62 1012.7
20260505063016 61 184 0.9 3.5 0.00 0.00 0.00 62 1012.8
20260505061515 61 190 0.9 3.5 0.00 0.00 0.00 61 1012.8
20260505060016 62 229 0.0 1.7 0.00 0.00 0.00 62 1012.7
20260505054514 62 229 0.0 1.7 0.00 0.00 0.00 61 1012.7
20260505053017 62 229 0.9 3.5 0.00 0.00 0.00 62 1012.7
20260505051514 62 180 0.9 4.3 0.00 0.00 0.00 63 1012.6
20260505041601 60 200 0.9 2.6 0.00 0.00 0.00 67 1012.6
20260505040105 60 201 0.0 1.7 0.00 0.00 0.00 67 1012.6
20260505034558 60 201 0.0 2.6 0.00 0.00 0.00 67 1012.4
20260505033100 61 201 0.0 0.9 0.00 0.00 0.00 65 1012.5
20260505031559 62 201 0.0 2.6 0.00 0.00 0.00 64 1012.6
20260505024556 62 82 0.0 2.6 0.00 0.00 0.00 62 1012.6
20260505023058 63 70 0.0 1.7 0.00 0.00 0.00 63 1012.7
20260505021559 64 68 0.0 1.7 0.00 0.00 0.00 60 1012.6
20260505020057 65 63 0.0 2.6 0.00 0.00 0.00 59 1012.6
20260505014554 65 57 0.0 1.7 0.00 0.00 0.00 57 1012.6
20260505013052 66 49 0.0 2.6 0.00 0.00 0.00 57 1012.5
20260505011555 67 28 0.0 1.7 0.00 0.00 0.00 57 1012.4
20260505010100 68 27 0.0 1.7 0.00 0.00 0.00 55 1012.4
20260505004552 69 27 0.0 1.7 0.00 0.00 0.00 53 1012.2
20260505003051 70 202 0.0 2.6 0.00 0.00 0.00 52 1012.0
20260505001550 71 221 0.0 2.6 0.00 0.00 0.00 50 1011.9
20260505000058 72 220 1.7 4.3 0.00 0.00 0.00 48 1011.9
20260504234549 72 227 1.7 4.3 0.00 0.00 0.00 47 1011.9
20260504233053 73 300 0.9 7.0 0.00 0.00 0.00 45 1011.9
20260504231548 74 277 3.5 7.0 0.00 0.00 0.00 43 1011.8
20260504230048 74 267 1.7 7.8 0.00 0.00 0.00 44 1011.7
20260504224549 74 283 3.5 10.4 0.00 0.00 0.00 41 1011.8
20260504223046 75 245 4.3 12.2 0.00 0.00 0.00 38 1011.7
20260504221546 76 234 5.2 13.9 0.00 0.00 0.00 38 1011.8
20260504220107 77 285 3.5 7.8 0.00 0.00 0.00 40 1011.7
20260504214551 76 283 4.3 13.0 0.00 0.00 0.00 42 1011.8
20260504213049 77 274 4.3 9.6 0.00 0.00 0.00 41 1011.7
20260504211541 76 277 6.1 11.3 0.00 0.00 0.00 43 1011.8
20260504210038 76 269 3.5 8.7 0.00 0.00 0.00 44 1012.0
20260504204536 76 277 2.6 10.4 0.00 0.00 0.00 44 1012.2
20260504203034 76 278 5.2 10.4 0.00 0.00 0.00 43 1012.2
20260504201532 76 267 1.7 7.8 0.00 0.00 0.00 48 1012.4
20260504200039 75 248 3.5 10.4 0.00 0.00 0.00 47 1012.7